Flag for Israel Weather past 2 weeks in Ramat Gan, Israel

Now
81 °F

Sunny.


Feels Like: 84 °F
Forecast: 78 / 90 °F
Wind: 2 mph from North

Location: Dov Airport

Current Time: Jul 30, 2015 at 9:23:55 AM

Latest Report: Jul 30, 2015 at 8:50 AM


Visibility: 10 mi

Pressure: 29.71 "Hg

Humidity: 70%

Dew point: 70 °F

Location of Ramat GanLocation

Historic Weather in Ramat Gan — Graph

°F

Ramat Gan temperature yesterday

Maximum temperature yesterday: 84 °F (at 12:50 PM)
Minimum temperature yesterday: 75 °F (at 5:50 AM)
Average temperature yesterday: 81 °F

Past Weeks' High & Low Weather Summary

 TemperatureHumidityPressure
High88 °F (Jul 23, 2:50 PM)89% (Jul 16, 4:50 AM)29.83 "Hg (Jul 16, 4:50 AM)
Low73 °F (Jul 17, 5:50 AM)52% (Jul 23, 2:50 PM)29.65 "Hg (Jul 20, 5:50 AM)
Average82 °F73%29.72 "Hg
* Reported Jul 15 7:50 AM — Jul 30 7:50 AM, Ramat Gan, Weather by CustomWeather, © 2015

Note: Actual official high and low records may vary slightly from our data, if they occured in-between our weather recording intervals... More about our weather records

Advertising

Ramat Gan weather history for previous 24 hours

 ConditionsComfort  
Time TempWeatherWind HumidityBarometerVisibility
7:50 AM
Thu, Jul 30
79 °FSunny.5 mph74%29.71 "Hg10 mi
6:50 AM75 °FClear.3 mph83%29.71 "Hg10 mi
5:50 AM73 °FClear.6 mph89%29.68 "Hg10 mi
4:50 AM75 °FClear.5 mph83%29.68 "Hg10 mi
4:00 AM75 °FClear.3 mph89%29.68 "Hg10 mi
10:50 PM
Wed, Jul 29
79 °FClear.3 mph79%29.71 "Hg10 mi
9:50 PM79 °FClear.3 mph74%29.68 "Hg10 mi
8:50 PM81 °FClear.6 mph70%29.68 "Hg10 mi
7:50 PM81 °FSunny.8 mph74%29.68 "Hg10 mi
6:50 PM82 °FSunny.10 mph66%29.65 "Hg10 mi
5:50 PM84 °FSunny.12 mph62%29.65 "Hg10 mi
4:50 PM84 °FSunny.10 mph62%29.68 "Hg10 mi
3:50 PM84 °FSunny.10 mph66%29.68 "Hg10 mi
2:50 PM84 °FSunny.10 mph66%29.68 "Hg10 mi
1:50 PM84 °FSunny.N/A66%29.71 "Hg10 mi
12:50 PM84 °FSunny.9 mph66%29.74 "Hg10 mi
11:50 AM82 °FSunny.10 mph70%29.74 "Hg10 mi
10:50 AM82 °FSunny.7 mph70%29.74 "Hg10 mi
9:50 AM82 °FSunny.6 mph70%29.71 "Hg10 mi
Weather by CustomWeather, © 2015

See weather overviewHow to use our weather pages